Regional Weather Roundup
Issued by NWS

Home | Current Version | Previous Version | Graphics & Text | Print | Product List | Glossary On
Versions: 1 2 3 4 5 6 7 8 9 10 11 12 13 14 15 16 17 18 19 20 21 22 23 24 25 26 27
000
ASUS45 KCYS 092210
RWRWY

WYOMING REGIONAL WEATHER ROUNDUP
NATIONAL WEATHER SERVICE CHEYENNE WY
300 PM MST SAT DEC 09 2017

NOTE:  "FAIR" INDICATES FEW OR NO CLOUDS BELOW 12,000 FEET
WITH NO SIGNIFICANT WEATHER AND/OR OBSTRUCTIONS TO VISIBILITY.

WYZ001-092300-
YELLOWSTONE NATIONAL PARK

CITY           SKY/WX    TMP DP  RH WIND       PRES   REMARKS
LK YELLOWSTONE   N/A     25  20  81 CALM      30.55S
W YELLOWSTONE  NOT AVBL

$$
WYZ002>013-054>058-071-098>099-092300-
NORTHERN WYOMING

CITY           SKY/WX    TMP DP  RH WIND       PRES   REMARKS
JACKSON        FAIR      29  18  63 CALM      30.57S
CODY           FAIR      43  18  36 NE8       30.34S
GREYBULL       FAIR      34  16  47 N3        30.36F
WORLAND        FAIR      45  22  40 N3        30.35S
SHERIDAN       FAIR      51   8  17 NW8       30.27S
BUFFALO        FAIR      53   5  14 NW7       30.30R
GILLETTE       FAIR      52  11  19 NW17      30.26R
HULETT         FAIR      46  16  29 W9G18     30.23R
NEWCASTLE      FAIR      46  14  27 NW14G22   30.24S

$$
WYZ014>020-022>026-101>103-092300-
CENTRAL WYOMING

CITY           SKY/WX    TMP DP  RH WIND       PRES   REMARKS
BIG PINEY      FAIR      50  -1  12 N15       30.46F
PINEDALE       FAIR      45  -4  13 W20G26    30.45S
DUBOIS         FAIR      45  -6  12 NW21      30.43R
LANDER         FAIR      42  21  43 CALM      30.37S
RIVERTON       FAIR      38  19  46 E6        30.39S WCI  33
CASPER         FAIR      37  19  48 SW17      30.36S WCI  27
DOUGLAS        FAIR      46  22  38 NW12      30.32R

$$
WYZ021-027>030-104>119-092300-
SOUTHERN WYOMING

CITY           SKY/WX    TMP DP  RH WIND       PRES   REMARKS
EVANSTON       FAIR      43  15  32 SW5       30.53S
FORT BRIDGER   FAIR      46   7  20 W15       30.53S
ROCK SPRINGS   FAIR      45   9  23 W15       30.45S
DIXON          FAIR      34  19  53 CALM      30.52S
RAWLINS        FAIR      35  16  45 SW16      30.44F WCI  25
SARATOGA       FAIR      34  21  60 S12       30.47R WCI  25
LARAMIE        FAIR      47  -4  12 NW20      30.36S
CHEYENNE       FAIR      50   1  13 NW21G32   30.31F
TORRINGTON     FAIR      57   2  11 NW16G25   30.25S
PINE BLUFFS    FAIR      52   1  12 NW26G33   30.30S

$$




USA.gov is the U.S. government's official web portal to all federal, state and local government web resources and services.